Fort Payne, AL

3:30 PM CST on February 11, 2016 (GMT -0600)
Fort Payne

Weather History for K4A9 - October, 2013

Change the Weather History Date:

Wednesday, October 16, 2013

  Actual Average (KRMG) Record (KRMG)
Temperature  
Mean Temperature 65 °F 61 °F  
Max Temperature 71 °F 74 °F 82 °F (2000)
Min Temperature 59 °F 48 °F 36 °F (2010)
Degree Days  
Heating Degree Days 0 5  
Month to date heating degree days 53  
Since 1 July heating degree days 67  
Cooling Degree Days 0 1  
Month to date cooling degree days 32  
Year to date cooling degree days 1622  
Growing Degree Days 15 (Base 50)    
Moisture  
Dew Point 57 °F    
Average Humidity 77    
Maximum Humidity 88    
Minimum Humidity 60    
Precipitation  
Precipitation 0.00 in 0.12 in 0.37 in (2006)
Month to date precipitation 2.05  
Year to date precipitation 40.88  
Sea Level Pressure  
Sea Level Pressure 30.01 in    
Wind  
Wind Speed 1 mph (South)    
Max Wind Speed 8 mph    
Max Gust Speed -    
Visibility 10 miles    
Events Rain    
T = Trace of Precipitation, MM = Missing Value Source: NWS Daily Summary

Daily Weather History Graph

Daily Weather History Graph

Search for Another Location

Airport or City:

Trip Planner

Search our weather history database for the weather conditions in past years. The results will help you decide how hot, cold, wet, or windy it might be!

Date:

Astronomy

Oct. 16, 2013 Rise Set
Actual Time 6:49 AM CDT 6:06 PM CDT
Civil Twilight 6:23 AM CDT 6:32 PM CDT
Nautical Twilight 5:54 AM CDT 7:01 PM CDT
Astronomical Twilight 5:25 AM CDT 7:30 PM CDT
Moon 4:42 PM CDT (10/16) 4:21 AM CDT (10/16)
Length of Visible Light 12h 08m
Length of Day
11h 17m
Waxing Gibbous, 94% of the Moon is Illuminated
Oct 16
Waxing Gibbous
Oct 18
Full
Oct 26
Last Quarter
Nov 3
New
Nov 9
First Quarter

Hourly Weather History & Observations

Time (CDT) Temp. Dew Point Humidity Pressure Visibility Wind Dir Wind Speed Gust Speed Precip Events Conditions
12:15 AM 60.8 °F 55.4 °F 82% 30.05 in 10.0 mi Calm Calm - N/A   Clear
12:35 AM 60.8 °F 55.4 °F 82% 30.05 in 10.0 mi Calm Calm - N/A   Clear
12:55 AM 62.6 °F 55.4 °F 77% 30.05 in 10.0 mi SSE 4.6 mph - N/A   Clear
1:15 AM 60.8 °F 55.4 °F 82% 30.04 in 10.0 mi Calm Calm - N/A   Scattered Clouds
1:35 AM 62.6 °F 55.4 °F 77% 30.04 in 10.0 mi Calm Calm - N/A   Overcast
1:55 AM 62.6 °F 55.4 °F 77% 30.04 in 10.0 mi Calm Calm - N/A   Overcast
2:15 AM 62.6 °F 55.4 °F 77% 30.03 in 10.0 mi SSE 3.5 mph - N/A   Scattered Clouds
2:35 AM 62.6 °F 55.4 °F 77% 30.02 in 10.0 mi Calm Calm - N/A   Scattered Clouds
2:55 AM 62.6 °F 55.4 °F 77% 30.02 in 10.0 mi SSE 3.5 mph - N/A   Scattered Clouds
3:15 AM 62.6 °F 55.4 °F 77% 30.02 in 10.0 mi Calm Calm - N/A   Clear
3:35 AM 59.0 °F 53.6 °F 82% 30.02 in 10.0 mi Calm Calm - N/A   Scattered Clouds
3:55 AM 60.8 °F 55.4 °F 82% 30.02 in 10.0 mi Calm Calm - N/A   Mostly Cloudy
4:15 AM 60.8 °F 55.4 °F 82% 30.02 in 10.0 mi Calm Calm - N/A   Overcast
4:35 AM 60.8 °F 55.4 °F 82% 30.02 in 10.0 mi Calm Calm - N/A   Mostly Cloudy
4:55 AM 60.8 °F 55.4 °F 82% 30.02 in 10.0 mi Calm Calm - N/A   Overcast
5:15 AM 60.8 °F 55.4 °F 82% 30.02 in 10.0 mi Calm Calm - N/A   Overcast
5:35 AM 60.8 °F 55.4 °F 82% 30.03 in 10.0 mi Calm Calm - N/A   Scattered Clouds
5:55 AM 62.6 °F 55.4 °F 77% 30.03 in 10.0 mi Calm Calm - N/A   Scattered Clouds
6:15 AM 60.8 °F 55.4 °F 82% 30.04 in 10.0 mi SSE 3.5 mph - N/A   Mostly Cloudy
6:35 AM 62.6 °F 55.4 °F 77% 30.04 in 10.0 mi Calm Calm - N/A   Overcast
6:55 AM 60.8 °F 55.4 °F 82% 30.05 in 10.0 mi Calm Calm - N/A   Overcast
7:15 AM 60.8 °F 55.4 °F 82% 30.05 in 10.0 mi SE 4.6 mph - N/A   Overcast
7:35 AM 60.8 °F 55.4 °F 82% 30.05 in 10.0 mi Calm Calm - N/A   Mostly Cloudy
7:55 AM 62.6 °F 55.4 °F 77% 30.06 in 10.0 mi ESE 3.5 mph - N/A   Overcast
8:15 AM 62.6 °F 55.4 °F 77% 30.07 in 10.0 mi Calm Calm - N/A   Overcast
8:35 AM 62.6 °F 55.4 °F 77% 30.07 in 10.0 mi Calm Calm - N/A   Overcast
8:55 AM 62.6 °F 55.4 °F 77% 30.07 in 10.0 mi SE 3.5 mph - N/A   Overcast
9:15 AM 62.6 °F 55.4 °F 77% 30.07 in 10.0 mi ESE 3.5 mph - N/A   Overcast
9:35 AM 62.6 °F 55.4 °F 77% 30.07 in 10.0 mi Calm Calm - N/A   Overcast
9:55 AM 64.4 °F 55.4 °F 73% 30.06 in 10.0 mi Calm Calm - N/A   Overcast
10:15 AM 64.4 °F 55.4 °F 73% 30.07 in 10.0 mi Calm Calm - N/A   Overcast
10:35 AM 64.4 °F 55.4 °F 73% 30.07 in 10.0 mi Calm Calm - N/A   Overcast
10:55 AM 68.0 °F 55.4 °F 64% 30.06 in 10.0 mi SSW 5.8 mph - N/A   Overcast
11:15 AM 68.0 °F 55.4 °F 64% 30.05 in 10.0 mi SSE 5.8 mph - N/A   Mostly Cloudy
11:35 AM 68.0 °F 55.4 °F 64% 30.04 in 10.0 mi SW 5.8 mph - N/A   Mostly Cloudy
11:55 AM 69.8 °F 57.2 °F 64% 30.04 in 10.0 mi Calm Calm - N/A   Overcast
12:15 PM 71.6 °F 57.2 °F 60% 30.03 in 10.0 mi SW 4.6 mph - N/A   Mostly Cloudy
12:35 PM 69.8 °F 57.2 °F 64% 30.02 in 10.0 mi South 4.6 mph - N/A   Overcast
12:55 PM 69.8 °F 59.0 °F 68% 30.01 in 10.0 mi SW 8.1 mph - N/A Rain Light Rain
1:15 PM 69.8 °F 57.2 °F 64% 30.00 in 10.0 mi SW 4.6 mph - N/A   Overcast
1:35 PM 69.8 °F 57.2 °F 64% 30.00 in 10.0 mi South 4.6 mph - N/A   Overcast
1:55 PM 69.8 °F 59.0 °F 68% 29.99 in 10.0 mi South 5.8 mph - N/A   Mostly Cloudy
2:15 PM 69.8 °F 57.2 °F 64% 29.99 in 10.0 mi South 4.6 mph - N/A   Overcast
2:35 PM 69.8 °F 59.0 °F 68% 29.98 in 10.0 mi SSW 5.8 mph - N/A   Overcast
2:55 PM 69.8 °F 59.0 °F 68% 29.98 in 10.0 mi Calm Calm - N/A   Overcast
3:15 PM 69.8 °F 59.0 °F 68% 29.98 in 10.0 mi South 3.5 mph - N/A   Mostly Cloudy
3:35 PM 69.8 °F 59.0 °F 68% 29.98 in 10.0 mi SSW 4.6 mph - N/A   Overcast
3:55 PM 69.8 °F 59.0 °F 68% 29.97 in 10.0 mi Calm Calm - N/A   Overcast
4:15 PM 69.8 °F 59.0 °F 68% 29.97 in 10.0 mi Calm Calm - N/A   Overcast
4:35 PM 69.8 °F 59.0 °F 68% 29.97 in 10.0 mi SSW 3.5 mph - N/A   Overcast
4:55 PM 68.0 °F 59.0 °F 73% 29.96 in 10.0 mi Calm Calm - N/A   Overcast
5:15 PM 68.0 °F 59.0 °F 73% 29.96 in 10.0 mi SE 3.5 mph - N/A   Overcast
5:35 PM 68.0 °F 59.0 °F 73% 29.96 in 10.0 mi Calm Calm - N/A   Overcast
5:55 PM 68.0 °F 59.0 °F 73% 29.96 in 10.0 mi Calm Calm - N/A Rain Rain
6:15 PM 68.0 °F 59.0 °F 73% 29.96 in 10.0 mi Calm Calm - N/A   Overcast
6:35 PM 68.0 °F 59.0 °F 73% 29.96 in 10.0 mi Calm Calm - N/A   Overcast
6:55 PM 68.0 °F 59.0 °F 73% 29.97 in 10.0 mi ESE 5.8 mph - N/A   Light Drizzle
7:15 PM 68.0 °F 60.8 °F 78% 29.98 in 7.0 mi SE 3.5 mph - N/A Rain Light Rain
7:35 PM 66.2 °F 60.8 °F 83% 29.98 in 7.0 mi Calm Calm - N/A Rain Light Rain
7:55 PM 64.4 °F 60.8 °F 88% 29.98 in 10.0 mi Calm Calm - N/A   Overcast
8:15 PM 64.4 °F 60.8 °F 88% 29.97 in 10.0 mi Calm Calm - N/A   Overcast
8:35 PM 64.4 °F 60.8 °F 88% 29.97 in 10.0 mi Calm Calm - N/A   Overcast
8:55 PM 66.2 °F 60.8 °F 83% 29.97 in 10.0 mi Calm Calm - N/A   Overcast
9:15 PM 66.2 °F 60.8 °F 83% 29.97 in 10.0 mi Calm Calm - N/A   Overcast
9:35 PM 64.4 °F 60.8 °F 88% 29.97 in 10.0 mi Calm Calm - N/A   Light Drizzle
9:55 PM 64.4 °F 60.8 °F 88% 29.97 in 7.0 mi Calm Calm - N/A Rain Light Rain
10:15 PM 64.4 °F 60.8 °F 88% 29.97 in 7.0 mi Calm Calm - N/A Rain Light Rain
10:35 PM 64.4 °F 60.8 °F 88% 29.97 in 7.0 mi Calm Calm - N/A   Drizzle
10:55 PM 64.4 °F 60.8 °F 88% 29.96 in 7.0 mi Calm Calm - N/A   Overcast
11:15 PM 64.4 °F 60.8 °F 88% 29.96 in 7.0 mi Calm Calm - N/A   Overcast
11:35 PM 64.4 °F 60.8 °F 88% 29.95 in 10.0 mi Calm Calm - N/A   Overcast
11:55 PM 64.4 °F 60.8 °F 88% 29.95 in 7.0 mi Calm Calm - N/A   Overcast